Regional Weather Roundup
Issued by NWS Jackson, KY

Home | Current Version | Previous Version | Text Only | Print | Product List | Glossary Off
Versions: 1 2 3 4 5 6 7 8 9 10 11 12 13 14 15 16 17 18 19 20 21 22 23 24 25 26 27 28 29 30 31 32 33 34 35 36 37 38 39 40 41 42 43 44 45 46 47 48 49 50

000
ASUS43 KJKL 251010
RWRJKL

EAST KENTUCKY HOURLY WEATHER ROUNDUP
NATIONAL WEATHER SERVICE JACKSON KY
600 AM EDT SAT APR 25 2015

NOTE: "FAIR" INDICATES FEW OR NO CLOUDS BELOW 12,000 FEET WITH
NO SIGNIFICANT WEATHER AND/OR OBSTRUCTIONS TO VISIBILITY.

* THESE REPORTS ARE NOT UNDER NWS QUALITY CONTROL AND MAY NOT
  REPORT WEATHER SUCH AS PRECIPITATION AND FOG.

KYZ079-080-083-085-087-088-110-112-115-119-120-251100
...EASTERN KENTUCKY...

CITY           SKY/WX    TMP DP  RH WIND       PRES   REMARKS
JACKSON        LGT RAIN  47  42  83 NE5       29.84F
LONDON         LGT RAIN  57  38  48 CALM      29.82F
SOMERSET*      CLOUDY    55  37  50 S5        29.82F
MONTICELLO*    CLOUDY    57  46  67 SE8       29.83F
MIDDLESBORO*   DRIZZLE   57  39  50 CALM      29.83F
HARLAN APT*    CLOUDY    54  41  62 CALM      29.82F
HAZARD APT*    CLOUDY    50  41  71 CALM      29.84F
BLACK MTN*       N/A     46  37  71 SW7         N/A
PIKEVILLE APT* CLOUDY    45  43  93 E5        29.87F
BIG SANDY*     CLOUDY    46  44  95 E5        29.87F
MOREHEAD APT*  CLOUDY    46  37  71 E7        29.86F
$$

KYZ035-036-041-042-044-050-067-078-099-251100
...CENTRAL KENTUCKY...

CITY           SKY/WX    TMP DP  RH WIND       PRES   REMARKS
MT STERLING*   CLOUDY    46  43  87 E6        29.83F
FLEMING/MASON* CLOUDY    45  43  93 E7        29.84F
DANVILLE*      CLOUDY    52  43  71 E3        29.82S
RICHMOND*      CLOUDY    50  41  71 E5        29.81S
LEXINGTON      CLOUDY    50  44  80 E12       29.81F
FRANKFORT      CLOUDY    51  40  65 E10       29.79F
$$

KYZ091>093-OHZ055-061-077-WVZ005-015-034-035-042-251100
...SOUTHERN OHIO/WEST VIRGINIA...

CITY           SKY/WX    TMP DP  RH WIND       PRES   REMARKS
COVINGTON      CLOUDY    48  40  73 SE6       29.81F
COLUMBUS       CLOUDY    46  26  45 E8        29.90R
DAYTON         CLOUDY    49  38  65 E7        29.86F
WILMINGTON     CLOUDY    49  31  49 SE8       29.85F
HUNTINGTON     RAIN      44  42  93 E5        29.87F
CHARLESTON     LGT RAIN  43  38  82 CALM      29.88F
PINEVILLE*     LGT SNOW  42  42  99 MISG      29.94R
BECKLEY        RAIN      44  33  65 S5        29.90S
BLUEFIELD      LGT RAIN  44  33  65 E3        29.89F
$$

VAZ002-007-008-TNZ017-027-036-066-071-251100
...SOUTHWEST VIRGINIA/EAST TENNESSEE...

CITY           SKY/WX    TMP DP  RH WIND       PRES   REMARKS
WISE*          RAIN      50  34  53 NW5       29.88S
JONESVILLE*    CLOUDY    52  46  82 CALM      29.86F
ABINGDON*      CLOUDY    54  32  42 CALM      29.87R
BRISTOL        CLOUDY    53  40  61 CALM      29.85F
KNOXVILLE      LGT RAIN  54  46  74 W8        29.82F
OAK RIDGE      LGT RAIN  53  46  77 VRB5      29.85F
CROSSVILLE     CLOUDY    53  49  86 S5        29.84F
NASHVILLE      CLOUDY    57  55  93 SE8       29.73F
$$

...KEY TO REMARKS...
VSB - VISIBILITY IN MILES
WCI - WIND CHILL INDEX
HX  - HEAT INDEX

$$


USA.gov is the U.S. government's official web portal to all federal, state and local government web resources and services.